Wind_Speed
47 47 47 46 46 45 44 43 43 42 42 40 41 40 40 40 40 40 40 40 41 41 42 42 42 42 43 45 45 45 45 45 45 44 45 46 46 46 46 46 47 47 46
45 45 46 45 46 45 45 44 43 42 41 41 40 40 40 40 40 40 40 40 41 41 42 42 42 42 43 45 45 45 45 45 45 45 45 45 46 46 46 46 47 46 46
45 45 45 45 44 44 43 43 43 43 42 41 40 41 41 41 40 40 40 40 40 41 40 41 41 43 44 45 45 44 44 45 45 45 44 44 46 46 46 47 47 46 45
44 44 44 44 43 43 43 43 43 43 42 41 40 41 41 41 41 40 40 40 40 40 40 41 42 43 43 44 43 43 44 44 44 44 44 44 45 45 45 45 44 44 44
43 42 42 43 42 42 41 41 41 42 42 42 42 42 42 41 40 41 41 41 41 40 40 41 41 41 42 42 42 42 42 42 42 43 44 44 44 43 44 43 43 42 42
41 42 42 42 42 42 42 42 42 42 42 42 42 42 41 40 40 40 41 41 41 41 41 41 41 41 42 41 41 41 41 41 41 43 43 43 42 43 43 42 42 41 41
41 41 42 42 43 43 42 42 43 43 42 42 42 42 41 40 40 40 40 40 40 41 41 41 41 42 41 40 40 39 39 40 41 42 42 42 42 41 41 42 42 41 40
42 42 42 43 43 43 43 43 43 43 43 42 43 42 42 42 42 41 40 40 40 41 40 40 40 40 39 39 38 39 39 40 41 41 41 41 41 41 40 41 40 40 38
41 41 42 42 42 42 43 43 43 43 43 42 42 42 42 41 41 41 40 39 40 39 38 38 38 38 38 38 38 39 39 40 41 40 40 41 40 40 40 39 38 37 36
40 41 42 42 42 41 41 42 43 42 42 41 41 41 40 39 39 39 38 38 38 38 37 37 37 36 36 37 37 37 37 38 39 38 38 39 38 38 38 38 37 36 34
39 40 40 41 41 41 40 40 41 41 41 41 40 39 39 39 39 38 38 38 38 37 37 37 36 36 36 36 36 37 37 37 37 37 37 37 37 37 37 36 35 34 33
38 38 39 39 40 40 40 40 39 39 40 40 39 38 38 38 37 37 37 37 37 36 36 36 36 36 36 36 36 36 36 36 36 36 36 36 36 36 35 34 33 32 30
37 37 38 38 38 39 39 39 39 39 39 39 38 38 38 37 37 37 37 36 36 36 35 36 36 35 34 35 35 35 36 36 36 36 35 34 34 33 32 31 30 30 29
36 36 36 36 36 36 37 38 38 38 38 38 37 37 37 37 37 37 36 35 36 36 36 36 35 34 33 33 33 34 35 35 34 33 33 32 32 30 29 28 28 28 26
34 35 35 35 36 36 36 37 37 37 37 36 36 36 35 35 36 36 36 36 35 35 35 34 34 33 33 32 32 33 33 33 32 31 30 30 29 28 27 27 26 25 24
32 33 34 35 36 35 35 35 35 36 36 36 34 34 34 34 34 34 34 33 33 33 33 33 32 32 31 31 31 32 32 32 30 29 29 28 27 26 25 24 24 22 22
30 31 32 33 33 33 33 33 33 34 34 33 33 32 32 32 32 32 31 31 31 31 31 30 30 29 29 29 30 30 30 30 29 28 27 26 25 24 23 23 22 21 20
28 29 30 31 32 32 32 32 31 31 31 31 32 31 31 30 30 29 29 29 29 29 29 28 28 28 28 28 29 29 29 28 27 25 24 23 23 22 21 21 19 19 19
27 27 28 29 31 31 31 31 31 31 30 30 30 30 29 29 28 28 27 27 28 28 27 27 27 27 28 28 28 27 26 25 23 22 22 21 20 19 19 19 18 18 18
26 26 27 28 28 29 30 30 30 30 29 29 29 28 28 28 28 28 28 27 27 26 26 26 26 26 26 25 25 24 24 22 21 20 19 19 18 18 18 17 16 17 17
25 25 25 25 26 26 26 27 27 27 27 27 27 28 27 27 27 27 27 27 26 25 25 25 25 24 24 23 23 22 21 20 19 18 17 16 15 16 15 15 15 16 16
23 23 23 23 23 24 24 24 25 25 25 26 26 26 26 25 25 25 25 24 25 25 24 24 23 23 23 22 21 20 19 17 16 15 15 15 14 13 13 13 14 14 13
21 21 21 22 22 22 22 23 23 23 23 23 23 24 24 24 24 24 24 23 23 22 22 22 22 21 20 19 18 17 16 15 14 14 13 13 12 12 12 12 12 11 10
20 20 20 21 21 21 21 22 22 23 22 22 22 22 22 22 22 22 22 21 21 21 20 20 19 18 17 16 16 15 14 13 13 13 13 12 11 11 10 10 10 9 8
19 19 19 19 19 19 20 21 21 21 20 20 19 20 20 20 20 20 20 19 19 18 18 17 17 17 16 16 15 14 13 12 12 11 11 10 9 8 8 8 7 7 7
17 17 17 18 18 18 19 19 19 19 18 18 18 18 18 19 19 19 18 18 18 17 17 16 16 15 14 14 14 13 12 12 11 10 9 8 7 6 6 6 5 5 5
Wind_Direction
242 242 244 246 247 248 249 251 253 254 256 259 262 263 264 267 269 272 276 279 281 283 285 286 287 289 291 295 297 298 300 301 303 304 305 306 308 309 311 312 312 313 312
242 242 244 246 249 250 251 252 253 255 257 259 261 264 266 268 269 272 275 278 281 283 284 285 287 289 291 294 295 297 299 300 302 304 305 307 308 310 311 312 313 313 314
242 243 244 246 249 250 252 252 254 256 257 259 262 264 265 267 270 273 274 277 280 282 284 285 287 289 291 293 294 296 298 301 303 304 305 307 309 310 312 313 313 314 315
244 244 245 246 247 249 250 252 254 256 258 260 262 265 266 268 269 271 273 276 279 282 284 287 289 290 291 293 294 295 297 300 302 304 306 308 309 310 311 313 313 314 316
245 245 247 247 247 249 250 253 255 257 259 261 262 265 266 268 270 271 273 275 278 281 284 287 289 291 292 293 293 295 296 299 301 303 305 307 309 310 311 313 314 316 316
245 246 246 247 249 250 252 253 256 257 260 261 263 264 266 268 270 271 273 275 277 280 283 286 288 290 292 293 294 295 296 299 301 303 305 307 308 310 311 313 315 316 316
245 246 247 248 251 251 251 253 255 256 259 261 262 263 265 267 270 271 273 275 277 279 282 284 286 288 290 292 294 296 297 300 302 304 305 306 308 310 312 313 314 315 316
247 247 248 250 252 253 253 254 255 256 258 260 262 263 265 267 269 271 274 276 277 279 282 284 285 287 288 290 292 295 297 300 303 304 305 306 308 310 312 313 314 316 317
248 249 249 251 251 253 254 255 256 257 259 260 262 263 265 267 269 271 274 276 277 279 281 282 284 286 287 289 292 295 297 301 303 305 305 306 308 310 311 313 314 315 316
248 249 250 251 252 253 254 255 256 257 259 259 261 263 264 266 267 269 271 274 277 278 280 282 284 284 286 289 292 295 297 300 302 304 305 307 310 311 312 313 313 314 315
250 249 249 250 252 253 254 255 256 256 257 258 260 262 263 264 266 268 270 273 275 277 279 281 282 284 287 289 292 294 296 298 301 303 305 307 310 312 313 312 313 315 316
251 250 250 250 251 252 253 254 253 254 256 256 258 260 262 264 266 268 270 272 274 275 277 280 282 284 286 289 292 294 296 298 300 302 304 306 309 310 312 312 312 314 316
251 251 251 251 252 252 252 252 254 255 256 257 258 259 261 263 265 267 270 272 273 274 276 279 281 283 285 289 291 293 296 298 301 302 304 306 308 310 311 312 313 313 314
251 251 251 251 251 251 251 252 254 255 256 257 258 260 261 263 265 267 269 271 273 275 277 278 279 281 285 288 290 293 296 298 301 303 305 307 309 309 311 313 313 313 313
252 251 250 251 251 251 252 253 253 254 255 257 259 260 261 263 265 267 268 270 273 275 276 276 277 280 284 287 289 293 296 299 301 302 304 306 307 308 311 313 314 314 314
253 252 251 251 250 251 252 253 253 253 255 256 257 259 261 264 265 267 268 269 272 274 274 276 277 280 283 286 289 292 295 298 300 301 302 303 305 307 311 313 314 314 315
254 253 252 252 251 250 252 253 253 253 253 254 256 259 262 264 265 266 267 268 271 273 274 276 277 279 282 286 289 293 295 298 299 300 301 301 302 305 309 312 314 315 317
255 254 252 251 250 249 250 250 250 251 252 253 255 257 260 262 263 263 265 267 269 273 275 276 277 279 282 286 290 293 295 296 297 299 300 301 302 305 309 312 314 316 318
256 253 252 251 249 249 249 249 249 251 252 253 253 255 257 258 260 262 264 266 268 273 276 277 278 281 284 287 290 292 294 295 295 297 298 299 301 304 309 312 313 315 318
256 254 252 250 249 249 249 249 250 251 251 252 253 254 256 258 260 262 264 267 269 271 274 277 279 281 283 285 287 289 291 291 292 295 297 299 300 303 306 309 311 314 318
255 254 251 250 249 248 248 249 249 249 251 252 254 256 258 260 261 263 265 268 270 271 274 276 278 279 281 282 283 286 288 289 290 292 297 300 300 303 305 308 310 315 319
252 251 250 248 247 246 247 247 247 248 250 253 255 256 258 260 261 264 266 267 268 269 270 273 277 278 278 279 281 283 285 287 290 292 297 298 300 302 305 309 314 318 321
252 249 247 246 246 246 246 246 246 247 249 253 254 255 256 257 259 261 264 265 266 266 266 269 273 275 275 276 276 277 280 282 285 290 294 298 299 301 305 310 317 322 326
250 248 246 245 246 247 247 247 247 248 251 254 255 255 256 258 259 260 261 263 264 265 266 267 268 269 270 272 273 275 276 276 279 284 288 293 296 299 305 310 317 324 334
247 245 244 245 246 248 248 246 246 248 250 251 252 254 256 257 258 258 259 260 263 264 264 265 264 263 264 267 269 270 272 274 276 279 285 288 289 293 301 309 320 330 341
243 241 242 244 247 248 247 244 244 246 247 248 250 254 256 256 256 256 256 257 259 262 262 263 263 260 259 262 264 264 269 271 272 276 279 279 277 281 294 310 323 335 349
Height
5681 5684 5688 5691 5695 5698 5701 5704 5707 5709 5711 5712 5714 5715 5716 5716 5717 5717 5717 5716 5715 5714 5713 5711 5709 5707 5704 5700 5696 5692 5688 5684 5680 5677 5671 5665 5659 5653 5647 5640 5633 5626 5619
5671 5674 5678 5682 5685 5688 5691 5694 5696 5699 5701 5702 5704 5705 5706 5706 5707 5707 5707 5707 5706 5704 5703 5701 5699 5697 5694 5690 5686 5682 5678 5674 5670 5666 5661 5655 5649 5643 5637 5631 5624 5617 5610
5661 5664 5668 5671 5675 5678 5681 5684 5686 5688 5691 5692 5694 5695 5696 5696 5697 5697 5697 5697 5695 5694 5693 5691 5689 5686 5683 5680 5676 5672 5668 5664 5660 5655 5651 5645 5640 5634 5628 5621 5614 5607 5600
5651 5654 5658 5661 5664 5668 5671 5673 5676 5678 5680 5682 5684 5684 5685 5686 5687 5687 5687 5686 5686 5685 5683 5681 5678 5676 5672 5669 5666 5662 5659 5655 5650 5646 5641 5636 5630 5624 5618 5613 5606 5599 5592
5641 5644 5648 5651 5654 5657 5660 5663 5666 5668 5670 5672 5673 5674 5675 5676 5676 5677 5677 5676 5676 5675 5673 5671 5668 5665 5662 5659 5655 5652 5649 5646 5641 5637 5632 5627 5621 5615 5610 5604 5597 5591 5585
5631 5634 5638 5641 5644 5647 5650 5653 5655 5657 5659 5661 5663 5664 5665 5666 5666 5666 5666 5666 5665 5664 5663 5661 5658 5656 5652 5649 5645 5642 5639 5636 5632 5628 5623 5618 5612 5606 5600 5595 5589 5584 5578
5621 5624 5627 5630 5634 5637 5639 5642 5645 5647 5649 5651 5652 5654 5654 5655 5655 5656 5655 5655 5655 5654 5653 5651 5649 5646 5643 5640 5637 5634 5630 5626 5623 5618 5614 5608 5603 5598 5593 5587 5581 5575 5569
5610 5614 5617 5620 5623 5626 5629 5631 5634 5636 5638 5639 5641 5643 5644 5644 5645 5645 5645 5645 5644 5644 5643 5641 5639 5636 5634 5632 5629 5626 5622 5618 5614 5610 5606 5600 5594 5588 5583 5578 5573 5568 5562
5600 5603 5606 5609 5612 5615 5618 5620 5622 5625 5627 5628 5630 5631 5632 5633 5634 5635 5635 5634 5634 5633 5632 5631 5629 5627 5625 5623 5620 5618 5614 5610 5605 5601 5596 5591 5586 5580 5575 5570 5566 5560 5556
5589 5592 5595 5598 5601 5604 5606 5609 5611 5613 5615 5617 5619 5620 5622 5623 5623 5624 5624 5624 5624 5623 5622 5621 5619 5618 5615 5613 5611 5609 5606 5602 5598 5593 5589 5584 5578 5573 5568 5563 5558 5553 5548
5578 5581 5584 5587 5590 5593 5595 5598 5600 5602 5604 5606 5608 5609 5611 5612 5612 5613 5614 5614 5613 5613 5612 5611 5610 5608 5606 5604 5602 5600 5597 5593 5589 5585 5581 5576 5571 5566 5561 5556 5551 5546 5541
5567 5570 5573 5576 5579 5581 5584 5586 5589 5591 5593 5595 5597 5598 5600 5601 5602 5603 5603 5603 5603 5603 5603 5602 5601 5599 5597 5595 5593 5590 5587 5584 5581 5577 5573 5569 5564 5559 5555 5550 5545 5540 5535
5556 5559 5562 5565 5567 5570 5573 5576 5578 5580 5583 5585 5586 5588 5589 5591 5591 5592 5593 5593 5593 5593 5593 5592 5591 5590 5588 5586 5584 5581 5579 5576 5572 5568 5565 5561 5557 5552 5548 5543 5539 5534 5530
5546 5549 5551 5554 5557 5559 5562 5565 5567 5570 5572 5574 5576 5577 5579 5580 5581 5582 5582 5583 5583 5583 5583 5582 5581 5580 5579 5577 5575 5573 5570 5567 5563 5560 5556 5553 5549 5545 5541 5537 5534 5529 5525
5536 5538 5541 5543 5546 5549 5551 5554 5556 5559 5561 5564 5566 5567 5569 5570 5571 5571 5572 5572 5573 5573 5572 5572 5572 5571 5570 5568 5567 5564 5562 5559 5555 5552 5549 5546 5543 5539 5536 5532 5528 5524 5521
5526 5528 5531 5533 5536 5538 5541 5544 5546 5549 5551 5553 5555 5557 5558 5559 5560 5560 5561 5562 5562 5562 5563 5563 5562 5562 5561 5559 5558 5556 5553 5550 5547 5544 5542 5539 5536 5533 5530 5527 5523 5519 5516
5517 5519 5521 5524 5526 5529 5531 5534 5536 5539 5541 5543 5545 5547 5548 5549 5550 5551 5552 5552 5553 5553 5553 5553 5553 5553 5552 5551 5549 5547 5545 5542 5539 5537 5534 5532 5529 5527 5525 5522 5518 5515 5512
5508 5510 5512 5514 5517 5519 5522 5524 5527 5529 5532 5533 5536 5537 5539 5540 5541 5542 5543 5543 5544 5544 5544 5544 5544 5544 5543 5542 5541 5539 5537 5534 5532 5530 5528 5526 5524 5522 5519 5517 5514 5511 5508
5499 5501 5503 5505 5508 5510 5513 5515 5518 5521 5523 5525 5527 5528 5530 5531 5532 5533 5534 5535 5535 5536 5536 5536 5536 5535 5535 5534 5532 5531 5529 5527 5526 5524 5522 5520 5518 5517 5515 5512 5510 5507 5505
5490 5492 5494 5496 5499 5501 5504 5507 5510 5512 5514 5516 5518 5520 5522 5523 5524 5525 5526 5526 5527 5527 5528 5528 5527 5527 5526 5525 5524 5523 5522 5521 5520 5518 5516 5515 5513 5512 5510 5508 5506 5504 5501
5482 5483 5485 5488 5491 5493 5496 5499 5501 5504 5506 5508 5510 5511 5513 5515 5516 5516 5517 5518 5518 5519 5519 5519 5519 5519 5518 5518 5517 5517 5516 5515 5514 5513 5511 5510 5509 5508 5506 5505 5503 5501 5498
5474 5476 5478 5480 5483 5486 5488 5491 5493 5495 5498 5500 5501 5503 5505 5506 5507 5508 5509 5510 5510 5511 5511 5511 5512 5511 5511 5511 5510 5510 5510 5509 5508 5508 5507 5506 5505 5504 5503 5501 5500 5498 5496
5467 5469 5471 5473 5476 5478 5481 5483 5485 5488 5490 5492 5493 5495 5496 5498 5499 5500 5501 5502 5502 5503 5503 5504 5504 5504 5504 5504 5504 5504 5504 5504 5504 5503 5503 5502 5501 5500 5500 5498 5497 5495 5493
5461 5463 5465 5467 5469 5471 5474 5476 5479 5481 5483 5485 5486 5487 5489 5490 5492 5493 5494 5494 5495 5495 5496 5497 5497 5498 5498 5498 5498 5499 5499 5499 5499 5499 5499 5498 5498 5497 5496 5495 5494 5493 5492
5455 5457 5459 5461 5463 5465 5468 5470 5472 5474 5476 5478 5479 5481 5482 5483 5485 5486 5487 5488 5489 5489 5490 5490 5491 5492 5492 5493 5493 5494 5494 5494 5495 5495 5495 5495 5495 5494 5494 5493 5492 5491 5490
5450 5452 5454 5456 5458 5460 5462 5464 5466 5468 5470 5472 5474 5475 5476 5477 5478 5480 5481 5482 5483 5484 5484 5485 5485 5486 5487 5488 5488 5489 5490 5490 5490 5491 5491 5491 5492 5492 5491 5491 5491 5490 5489